Hourly Data Report for January 03, 2022

ST. JOHN'S INTL A
NEWFOUNDLAND
Current Station Operator: NAVCAN

47°37'07.000" N
52°45'09.000" W
140.50 m
8403505
71801
YYT

Download Data

Hourly Data (January 2022)
Hourly Data Report for January 3, 2022
TIME
LST
Temp Definition
°C
Dew Point Definition
°C
Rel Hum Definition
%
Precip. Amount Definition
mm

Wind Dir Definition
10's deg

Wind Spd Definition
km/h
Visibility Definition
km
Stn Press Definition
kPa
Hmdx Definition


Wind Chill Definition


Weather Definition


00:30 5.0 4.7 98   22 30 9.7 97.20     Drizzle, Fog
01:30 6.0 5.6 97   23 32 19.3 97.05     Rain
02:30 5.8 5.3 97   25 28 19.3 96.96     Rain
03:30 6.0 5.7 98   27 40 24.1 96.96     LegendNANA
04:30 4.8 4.5 98   29 45 4.8 96.93     Fog
05:30 4.1 3.9 98   29 43 19.3 97.02     Drizzle
06:30 3.8 3.3 97   30 40 24.1 97.13     LegendNANA
07:30 2.9 2.3 96   30 39 9.7 97.34     Fog
08:30 0.4 -0.2 96   31 42 9.7 97.60     Rain, Fog
09:30 0.4 -1.1 90   31 45 24.1 97.89     LegendNANA
10:30 0.4 -1.7 86   31 40 24.1 98.11     LegendNANA
11:30 -0.7 -4.2 77   31 48 24.1 98.24   -9 Mostly Cloudy
12:30 -0.8 -3.9 79   30 45 24.1 98.37   -9 LegendNANA
13:30 -0.9 -4.5 77   30 47 24.1 98.55   -9 LegendNANA
14:30 -1.5 -5.1 77   31 37 24.1 98.80   -9 Cloudy
15:30 -1.9 -5.7 75   30 35 24.1 98.98   -9 LegendNANA
16:30 -2.3 -6.6 72   30 33 24.1 99.10   -10 LegendNANA
17:30 -3.2 -8.6 66   31 44 24.1 99.21   -12 Mainly Clear
18:30 -4.1 -9.4 67   33 17 24.1 99.40   -10 LegendNANA
19:30 -4.4 -8.8 72   31 19 24.1 99.46   -11 LegendNANA
20:30 -5.8 -10.1 72   32 30 24.1 99.52   -14 Mainly Clear
21:30 -6.4 -10.8 71   33 18 24.1 99.66   -13 LegendNANA
22:30 -5.9 -9.7 75   31 18 24.1 99.77   -12 LegendNANA
23:30 -6.2 -9.9 75   31 20 24.1 99.73   -13 Cloudy

Notes on Data Quality.

Legend

  • E = Estimated
  • M = Missing
  • NA = Not Available*
  • [empty] = Indicates an unobserved value
Date modified: